Regional Weather Roundup
Issued by NWS

Home | Current Version | Previous Version | Text Only | Print | Product List | Glossary On
Versions: 1 2 3 4 5 6 7 8 9 10 11 12 13 14 15 16 17 18 19 20 21 22 23 24 25 26 27 28 29 30 31 32 33 34 35 36 37 38 39 40 41 42 43 44 45 46 47 48 49 50
758
ASUS44 KLIX 280010
RWRLA
LOUISIANA WEATHER ROUNDUP
NATIONAL WEATHER SERVICE NEW ORLEANS LA
700 PM CDT SUN JUL 27 2014

NOTE: "FAIR" INDICATES FEW OR NO CLOUDS BELOW 12,000 FEET WITH NO
      SIGNIFICANT WEATHER AND/OR OBSTRUCTIONS TO VISIBILITY.
      SKY/WX - SKY CONDITION AND SIGNIFICANT WEATHER.
      TMP - AIR TEMPERATURE.    DP   - DEWPOINT TEMPERATURE.
      RH  - RELATIVE HUMIDITY.  PRES - PRESSURE.
      HX  - HEAT INDEX.         WCI  - WIND CHILL INDEX.

*  THESE STATIONS ARE NOT NWS OR FAA STATIONS AND ARE NOT UNDER
   NWS QUALITY CONTROL.

LAZ040-048-061>063-065-066-069-280100-
SOUTHEAST LOUISIANA

CITY           SKY/WX    TMP DP  RH WIND       PRES   REMARKS
N.O. AUDUBON     N/A     93  76  57 MISG        N/A  HX 105
6HR MIN TEMP:  92; 6HR MAX TEMP:  99;

N.O. INTL ARPT PTSUNNY   87  74  64 SW14      30.02S HX  95
6HR MIN TEMP:  87; 6HR MAX TEMP:  94;

N.O. LAKEFRONT MOSUNNY   87  74  64 S10       30.02S HX  95
6HR MIN TEMP:  87; 6HR MAX TEMP:  93;

N.O. DOWNTOWN* FAIR      90  72  55 SE6       30.03S HX  96
6HR MIN TEMP:  86; 6HR MAX TEMP:  93;

SLIDELL        SUNNY     90  73  57 SW7       30.01R HX  98
6HR MIN TEMP:  90; 6HR MAX TEMP:  93;

BATON ROUGE    MOSUNNY   89  74  60 W10       30.01S HX  98
6HR MIN TEMP:  89; 6HR MAX TEMP:  94;

BOOTHVILLE     SUNNY     85  77  77 SW12      30.05S HX  95
6HR MIN TEMP:  85; 6HR MAX TEMP:  88;

BELLE CHASSE   PTSUNNY   86  73  65 SE6       30.02F
6HR MIN TEMP:  86; 6HR MAX TEMP:  93;

BOGALUSA*      FAIR      91  74  58 CALM      30.03R HX 100
6HR MIN TEMP:  91; 6HR MAX TEMP:  94;

GALLIANO*      NOT AVBL
NEW ROADS*     FAIR      90  76  62 MISG      30.01F HX 101
6HR MIN TEMP:  90; 6HR MAX TEMP:  93;

GONZALES*      FAIR      87  78  75 SW6       30.03R HX  99
6HR MIN TEMP:  85; 6HR MAX TEMP:  93;

HAMMOND*       SUNNY     91  70  49 W3        30.03S HX  97
HOUMA*         MOSUNNY   90  72  55 W12       30.04S HX  96
PORT FOURCHON* CLEAR     86  75  70 SW10      30.07S HX  95

$$

LAZ041-044-053-054-280100-
SOUTHWEST LOUISIANA

CITY           SKY/WX    TMP DP  RH WIND       PRES   REMARKS
LAKE CHARLES   SUNNY     88  73  61 SW8       30.03R HX  95
6HR MIN TEMP:  88; 6HR MAX TEMP:  92;

LAFAYETTE      MOSUNNY   90  74  59 SW10      30.03R HX  99
6HR MIN TEMP:  90; 6HR MAX TEMP:  94;

PATTERSON      PTSUNNY   84  77  79 SW7       30.09S
6HR MIN TEMP:  82; 6HR MAX TEMP:  91;

SALT POINT       N/A     89  78  70 VRB7      30.04S HX 103
6HR MIN TEMP:  89; 6HR MAX TEMP:  93;

NEW IBERIA     MOSUNNY   90  75  61 MISG      30.03S HX 100
6HR MIN TEMP:  87; 6HR MAX TEMP:  94;

CHENAULT AIRPK SUNNY     90  72  55 S12       30.04  HX  96

$$

LAZ027-028-280100-
CENTRAL LOUISIANA

CITY           SKY/WX    TMP DP  RH WIND       PRES   REMARKS
FORT POLK      SUNNY     91  71  51 SW6       30.02S HX  97
6HR MIN TEMP:  88; 6HR MAX TEMP:  93;

ALEXANDRIA INT SUNNY     90  76  63 SW6       29.99S HX 101
6HR MIN TEMP:  90; 6HR MAX TEMP:  95;

ALEXANDRIA     SUNNY     93  75  55 SW5       30.01S HX 104
6HR MIN TEMP:  93; 6HR MAX TEMP:  97;


$$

LAZ001-002-280100-
NORTHWEST LOUISIANA

CITY           SKY/WX    TMP DP  RH WIND       PRES   REMARKS
SHREVEPORT     MOSUNNY   92  73  53 SW7       29.99S HX 100
6HR MIN TEMP:  92; 6HR MAX TEMP:  95;

BARKSDALE AFB  SUNNY     93  71  47 W7        30.00R HX  99
6HR MIN TEMP:  92; 6HR MAX TEMP:  95;

DTN SHREVEPORT SUNNY     91  71  51 W8        29.99S HX  97
6HR MIN TEMP:  91; 6HR MAX TEMP:  94;


$$

LAZ014-016-280100-
NORTHEAST LOUISIANA

CITY           SKY/WX    TMP DP  RH WIND       PRES   REMARKS
MONROE         SUNNY     91  72  53 SW10      29.99S HX  98
6HR MIN TEMP:  91; 6HR MAX TEMP:  95;

TALLULAH       MOSUNNY   90  74  59 SW3       30.00R HX  99
6HR MIN TEMP:  90; 6HR MAX TEMP:  94;


$$




USA.gov is the U.S. government's official web portal to all federal, state and local government web resources and services.